| time (UTC) | temp F | wind direction | speed MPH | gust MPH | rain 1hr in | rain 24hr in | rain mn in | humidity % | barometer mb |
| 20260903204610 | 62 | 65 | 0.0 | 0.0 | 0.01 | 0.30 | 0.30 | 86 | 1010.8 |
| 20260903203051 | 62 | 180 | 0.0 | 1.0 | 0.01 | 0.30 | 0.30 | 86 | 1010.9 |
| 20260903201548 | 62 | 110 | 0.0 | 1.0 | 0.01 | 0.30 | 0.30 | 86 | 1010.9 |
| 20260903200053 | 62 | 139 | 0.0 | 0.0 | 0.00 | 0.28 | 0.28 | 86 | 1011.0 |
| 20260903194546 | 62 | 96 | 0.0 | 0.0 | 0.00 | 0.28 | 0.28 | 86 | 1011.2 |
| 20260903193044 | 62 | 138 | 0.0 | 4.0 | 0.00 | 0.28 | 0.28 | 85 | 1011.3 |
| 20260903191543 | 62 | 89 | 0.0 | 1.0 | 0.01 | 0.28 | 0.28 | 86 | 1011.4 |
| 20260903190042 | 62 | 182 | 0.0 | 3.0 | 0.01 | 0.28 | 0.28 | 85 | 1011.4 |
| 20260903184544 | 62 | 181 | 0.0 | 1.0 | 0.01 | 0.28 | 0.28 | 85 | 1011.5 |
| 20260903183039 | 62 | 90 | 0.0 | 4.0 | 0.01 | 0.28 | 0.28 | 86 | 1011.6 |
| 20260903181538 | 62 | 186 | 0.0 | 8.0 | 0.02 | 0.28 | 0.28 | 85 | 1011.9 |
| 20260903180038 | 62 | 176 | 0.0 | 3.0 | 0.03 | 0.28 | 0.28 | 86 | 1012.0 |
| 20260903174535 | 62 | 182 | 0.0 | 2.0 | 0.03 | 0.28 | 0.28 | 85 | 1012.2 |
| 20260903173033 | 62 | 167 | 0.0 | 1.0 | 0.04 | 0.28 | 0.28 | 85 | 1012.2 |
| 20260903171532 | 62 | 155 | 0.0 | 4.0 | 0.02 | 0.26 | 0.26 | 85 | 1012.3 |
| 20260903170031 | 62 | 121 | 0.0 | 2.0 | 0.02 | 0.25 | 0.25 | 86 | 1012.5 |
| 20260903164528 | 61 | 192 | 0.0 | 3.0 | 0.03 | 0.25 | 0.25 | 86 | 1012.6 |
| 20260903163026 | 61 | 193 | 0.0 | 1.0 | 0.03 | 0.24 | 0.24 | 86 | 1012.8 |
| 20260903161525 | 61 | 88 | 0.0 | 5.0 | 0.03 | 0.24 | 0.24 | 85 | 1012.9 |
| 20260903160050 | 61 | 101 | 0.0 | 2.0 | 0.03 | 0.23 | 0.23 | 86 | 1013.0 |
| 20260903154522 | 60 | 163 | 0.0 | 4.0 | 0.02 | 0.22 | 0.22 | 86 | 1013.2 |
| 20260903153022 | 60 | 177 | 0.0 | 5.0 | 0.02 | 0.21 | 0.21 | 86 | 1013.3 |
| 20260903151523 | 61 | 178 | 0.0 | 5.0 | 0.02 | 0.21 | 0.21 | 86 | 1013.5 |
| 20260903150025 | 60 | 37 | 0.0 | 2.0 | 0.03 | 0.20 | 0.20 | 86 | 1013.7 |
| 20260903144516 | 60 | 103 | 0.0 | 5.0 | 0.03 | 0.20 | 0.20 | 86 | 1013.9 |
| 20260903143022 | 60 | 46 | 0.0 | 1.0 | 0.03 | 0.19 | 0.19 | 86 | 1014.0 |
| 20260903141514 | 59 | 178 | 0.0 | 3.0 | 0.04 | 0.19 | 0.19 | 86 | 1014.2 |
| 20260903140008 | 59 | 107 | 0.0 | 2.0 | 0.03 | 0.17 | 0.17 | 86 | 1014.3 |
| 20260903134506 | 59 | 155 | 0.0 | 5.0 | 0.04 | 0.17 | 0.17 | 86 | 1014.5 |
| 20260903133006 | 58 | 173 | 0.0 | 0.0 | 0.05 | 0.16 | 0.16 | 86 | 1014.5 |
| 20260903131505 | 58 | 176 | 0.0 | 1.0 | 0.06 | 0.15 | 0.15 | 86 | 1014.4 |
| 20260903130004 | 58 | 144 | 0.0 | 3.0 | 0.07 | 0.14 | 0.14 | 85 | 1014.6 |
| 20260903124502 | 58 | 129 | 0.0 | 1.0 | 0.06 | 0.13 | 0.13 | 85 | 1014.7 |
| 20260903123100 | 58 | 211 | 0.0 | 8.0 | 0.05 | 0.11 | 0.11 | 85 | 1014.7 |
| 20260903121559 | 57 | 213 | 0.0 | 1.0 | 0.03 | 0.09 | 0.09 | 85 | 1014.8 |
| 20260903120106 | 57 | 144 | 0.0 | 5.0 | 0.03 | 0.08 | 0.08 | 85 | 1014.9 |
| 20260903114556 | 57 | 279 | 0.0 | 3.0 | 0.03 | 0.07 | 0.07 | 85 | 1015.1 |
| 20260903113054 | 56 | 144 | 0.0 | 5.0 | 0.04 | 0.06 | 0.06 | 84 | 1015.2 |
| 20260903111553 | 56 | 154 | 0.0 | 0.0 | 0.06 | 0.06 | 0.06 | 84 | 1015.4 |
| 20260903110053 | 56 | 135 | 0.0 | 5.0 | 0.05 | 0.05 | 0.05 | 84 | 1015.3 |
| 20260903104552 | 56 | 83 | 0.0 | 0.0 | 0.04 | 0.04 | 0.04 | 83 | 1015.4 |
| 20260903103051 | 56 | 76 | 0.0 | 2.0 | 0.01 | 0.01 | 0.01 | 82 | 1015.4 |
| 20260903101554 | 57 | 59 | 0.0 | 3.0 | 0.00 | 0.00 | 0.00 | 81 | 1015.3 |
| 20260903100050 | 56 | 28 | 0.0 | 7.0 | 0.00 | 0.00 | 0.00 | 81 | 1015.3 |
| 20260903094554 | 56 | 103 | 0.0 | 3.0 | 0.00 | 0.00 | 0.00 | 80 | 1015.2 |
| 20260903093111 | 56 | 127 | 0.0 | 3.0 | 0.00 | 0.00 | 0.00 | 79 | 1015.4 |
| 20260903091546 | 56 | 91 | 0.0 | 3.0 | 0.00 | 0.00 | 0.00 | 79 | 1015.5 |
| 20260903090045 | 56 | 99 | 0.0 | 4.0 | 0.00 | 0.00 | 0.00 | 78 | 1015.6 |
| 20260903084544 | 56 | 59 | 0.0 | 6.0 | 0.00 | 0.00 | 0.00 | 78 | 1015.6 |
| 20260903083043 | 56 | 117 | 0.0 | 1.0 | 0.00 | 0.00 | 0.00 | 77 | 1015.6 |
| 20260903081543 | 56 | 72 | 0.0 | 7.0 | 0.00 | 0.00 | 0.00 | 77 | 1015.6 |
| 20260903080041 | 56 | 67 | 0.0 | 1.0 | 0.00 | 0.00 | 0.00 | 76 | 1015.9 |
| 20260903074544 | 56 | 211 | 0.0 | 3.0 | 0.00 | 0.00 | 0.00 | 76 | 1016.0 |
| 20260903073041 | 56 | 151 | 0.0 | 2.0 | 0.00 | 0.00 | 0.00 | 75 | 1016.2 |
| 20260903071538 | 56 | 110 | 0.0 | 0.0 | 0.00 | 0.00 | 0.00 | 75 | 1016.2 |
| 20260903070035 | 56 | 36 | 0.0 | 0.0 | 0.00 | 0.00 | 0.00 | 75 | 1016.5 |
| 20260903064541 | 56 | 137 | 0.0 | 5.0 | 0.00 | 0.00 | 0.00 | 75 | 1016.5 |
| 20260903063032 | 56 | 80 | 0.0 | 5.0 | 0.00 | 0.00 | 0.00 | 76 | 1016.8 |
| 20260903061540 | 56 | 69 | 0.0 | 4.0 | 0.00 | 0.00 | 0.00 | 77 | 1016.9 |
| 20260903060029 | 56 | 99 | 0.0 | 2.0 | 0.00 | 0.00 | 0.00 | 78 | 1017.2 |
| 20260903054525 | 56 | 95 | 0.0 | 1.0 | 0.00 | 0.00 | 0.00 | 78 | 1017.3 |
| 20260903053024 | 56 | 125 | 0.0 | 0.0 | 0.00 | 0.00 | 0.00 | 78 | 1017.4 |
| 20260903051522 | 56 | 94 | 0.0 | 1.0 | 0.00 | 0.00 | 0.00 | 78 | 1017.5 |
| 20260903050028 | 56 | 132 | 0.0 | 4.0 | 0.00 | 0.00 | 0.00 | 78 | 1017.7 |
| 20260903044519 | 56 | 73 | 0.0 | 3.0 | 0.00 | 0.00 | 0.00 | 78 | 1017.7 |
| 20260903043018 | 57 | 123 | 0.0 | 0.0 | 0.00 | 0.00 | 0.00 | 78 | 1017.6 |
| 20260903041517 | 57 | 117 | 0.0 | 0.0 | 0.00 | 0.00 | 0.00 | 77 | 1017.6 |
| 20260903040014 | 57 | 117 | 0.0 | 0.0 | 0.00 | 0.00 | 0.00 | 76 | 1017.6 |
| 20260903034518 | 57 | 144 | 0.0 | 1.0 | 0.00 | 0.00 | 0.00 | 76 | 1017.6 |
| 20260903033012 | 58 | 76 | 0.0 | 0.0 | 0.00 | 0.00 | 0.00 | 75 | 1017.7 |
| 20260903031510 | 58 | 89 | 0.0 | 0.0 | 0.00 | 0.00 | 0.00 | 74 | 1017.7 |
| 20260903030009 | 58 | 84 | 0.0 | 0.0 | 0.00 | 0.00 | 0.00 | 73 | 1018.0 |
| 20260903024508 | 59 | 85 | 0.0 | 2.0 | 0.00 | 0.00 | 0.00 | 72 | 1018.2 |
| 20260903023007 | 59 | 96 | 0.0 | 0.0 | 0.00 | 0.00 | 0.00 | 71 | 1018.4 |
| 20260903021507 | 60 | 66 | 0.0 | 0.0 | 0.00 | 0.00 | 0.00 | 68 | 1018.4 |
| 20260903020006 | 60 | 183 | 0.0 | 4.0 | 0.00 | 0.00 | 0.00 | 68 | 1018.3 |
| 20260903014505 | 60 | 101 | 0.0 | 1.0 | 0.00 | 0.00 | 0.00 | 68 | 1018.1 |
| 20260903013005 | 60 | 71 | 0.0 | 0.0 | 0.00 | 0.00 | 0.00 | 68 | 1018.2 |
| 20260903011504 | 60 | 71 | 0.0 | 1.0 | 0.00 | 0.00 | 0.00 | 68 | 1018.2 |
| 20260903010007 | 61 | 108 | 0.0 | 2.0 | 0.00 | 0.00 | 0.00 | 67 | 1018.2 |
| 20260903004503 | 61 | 115 | 0.0 | 2.0 | 0.00 | 0.00 | 0.00 | 66 | 1018.2 |
| 20260903003002 | 61 | 125 | 0.0 | 0.0 | 0.00 | 0.00 | 0.00 | 64 | 1018.3 |
| 20260903001502 | 62 | 131 | 0.0 | 0.0 | 0.00 | 0.00 | 0.00 | 63 | 1018.5 |
| 20260903000002 | 62 | 119 | 0.0 | 2.0 | 0.00 | 0.00 | 0.00 | 62 | 1018.3 |
| 20260902234501 | 63 | 69 | 0.0 | 0.0 | 0.00 | 0.00 | 0.00 | 61 | 1018.2 |
| 20260902233106 | 63 | 128 | 0.0 | 3.0 | 0.00 | 0.00 | 0.00 | 60 | 1018.2 |
| 20260902231608 | 64 | 105 | 0.0 | 3.0 | 0.00 | 0.00 | 0.00 | 59 | 1018.3 |
| 20260902230056 | 65 | 148 | 0.0 | 0.0 | 0.00 | 0.00 | 0.00 | 58 | 1018.6 |
| 20260902224605 | 65 | 148 | 0.0 | 1.0 | 0.00 | 0.00 | 0.00 | 58 | 1018.6 |
| 20260902223056 | 66 | 88 | 0.0 | 0.0 | 0.00 | 0.00 | 0.00 | 56 | 1018.8 |
| 20260902221555 | 67 | 88 | 0.0 | 0.0 | 0.00 | 0.00 | 0.00 | 54 | 1018.8 |
| 20260902220058 | 68 | 88 | 0.0 | 0.0 | 0.00 | 0.00 | 0.00 | 53 | 1019.0 |
| 20260902214553 | 68 | 82 | 0.0 | 0.0 | 0.00 | 0.00 | 0.00 | 51 | 1018.9 |
| 20260902213102 | 68 | 71 | 0.0 | 0.0 | 0.00 | 0.00 | 0.00 | 51 | 1018.8 |
| 20260902211551 | 69 | 77 | 0.0 | 0.0 | 0.00 | 0.00 | 0.00 | 49 | 1019.1 |
| 20260902210050 | 70 | 77 | 0.0 | 1.0 | 0.00 | 0.00 | 0.00 | 47 | 1019.1 |